COSMOS 1566

Satellite information

Favourite Embed

Satellite Type and Status

PAYLOADIN ORBIT

Key statistics

Satellite COSMOS 1566 at a glance.

Uptime

15134

Days in orbit

Revolutions

≈ 12.6

Per day

Orbit

LEO

Low Earth Orbit

Inclination

74.0

Latest

Satellite identification and parameters

Extended collection of information and parameters for COSMOS 1566.

Object identification

Identified? True

Debris? False

Object name: COSMOS 1566

International designator: 1984-052H

Object number (NORAD): 15005

Object ID (CCSDS): 15005

Country: COMMONWEALTH OF INDEPENDENT STATES (CIS)

Current information (Y/N): Y

RCS size: MEDIUM

Orbital parameters

Period: 114.524 minutes

Inclination: 74.0133 deg

SMA: 7811.919 km

Apoapsis: 1473.327 km

Periapsis: 1394.24 km

RAAN: 337.481 deg

Eccentricy: 0.0050619

Argument of periapsis: 115.5044 deg

Mean anomaly: 45.7123 deg

Mean motion: 12.5737899 rev/day

Mean motion (dot): 0.00000007 rev/day2

B* drag term: 0.00013791 1/REarth

Two-line elements (TLE)

Creation date: Nov. 2, 2025, 3:46 p.m.

Reference frame: TEME

Reference center: EARTH

Epoch: Nov. 2, 2025, 11:42 a.m. UTC

TLE line 0: 0 COSMOS 1566

TLE line 1: 1 15005U 84052H 25306.48795196 .00000007 00000-0 13791-3 0 9996

TLE line 2: 2 15005 74.0133 337.4810 0050619 115.5044 45.7123 12.57378990901618

Live tracking on map

Real-time ground track for satellite COSMOS 1566.

In-orbit conjunctions

A list of the most updated potential collisions computed for object COSMOS 1566.

Target Orbit TCA Probability of collision Miss distance Type
THORAD DELTA 1 DEB SSO 2025-10-20 23:34:19 0.0002390905 104.0 (m) DEBRIS
SL-8 DEB LEO 2025-08-21 05:37:10 0.001015935 69.0 (m) DEBRIS

Associated space launch

Military communications satellites

COSMOS 1566 was lifted into orbit during the mission ‘Kosmos-3M | Strela-1M 281-288’, on board a Kosmos-3M space rocket.

The launch took place on May 28, 1984, 9:52 p.m. from 132/2.

For more information about the launch, click the button.

Launch to space Kosmos-3M | Strela-1M 281-288
Kosmos-3M | Strela-1M 281-288

Agency: N/A

Status: Launch Successful

Launch date: May 28, 1984, 9:52 p.m. UTC

Rocket: Kosmos-3M

Launch pad: 132/2

Location: Plesetsk Cosmodrome, Russian Federation

...

Latest news about this satellite

There are no fresh news available about this satellite. Check back as we update our databases every day.


Newsletter sign-up

Weekly statistics, charts and insights to help you stay on top of the space industry.